Regional Weather Roundup
Issued by NWS Lake Charles, LA

Home | Current Version | Previous Version | Text Only | Print | Product List | Glossary On
Versions: 1 2 3 4 5 6 7 8 9 10 11 12 13 14 15 16 17 18 19 20 21 22 23 24 25 26 27 28 29 30 31 32 33 34 35 36 37 38 39 40 41 42 43 44 45 46 47 48 49 50
000
ASUS44 KLCH 280610
RWRLCH
RWRLCH
REGIONAL WEATHER ROUNDUP
NATIONAL WEATHER SERVICE LAKE CHARLES LA
1200 AM CST SAT FEB 28 2015

Note: "fair" indicates few or no clouds below 12,000 feet with no
significant weather and/or obstructions to visibility.


ACROSS SOUTHEAST TEXAS

CITY           SKY/WX    TMP DP  RH WIND       PRES   REMARKS
BEAUMONT       CLEAR     40  31  70 NE14      30.35F
BEAUMONT CITY    N/A     39  30  70 NE9G17    30.36F
ORANGE         CLEAR     38  31  78 NE16G23   30.38F WCI  29
JASPER         MOCLDY    36  26  68 NE8       30.40F WCI  30
$$

ACROSS CENTRAL LOUISIANA

CITY           SKY/WX    TMP DP  RH WIND       PRES   REMARKS
LEESVILLE      CLEAR     32  25  75 E6        30.41F WCI  27
FULLERTON        N/A     34  25  69 CALM      30.40F
ALEXANDRIA INT MOCLDY    34  26  72 NE5       30.44F WCI  30
ESLER FIELD    PTCLDY    35  25  66 NE3       30.45F
DERIDDER         N/A     34  25  71 CALM      30.43F
OAKDALE        CLEAR     33  26  77 NE3       30.44F
OPELOUSAS        N/A     32  28  84 NE7       30.44F WCI  26
$$

ACROSS SOUTHWEST AND SOUTH CENTRAL LOUISIANA

CITY           SKY/WX    TMP DP  RH WIND       PRES   REMARKS
SULPHUR        CLEAR     38  28  67 NE16G24   30.38F WCI  29
LAKE CHARLES   CLEAR     37  28  70 NE18      30.39F WCI  27
CHENNAULT INT  CLEAR     35  28  75 NE13      30.41F WCI  27
CAMERON PHI    CLEAR     39  30  70 NE18G26   30.41R WCI  30
DEQUINCY       NOT AVBL
JENNINGS         N/A     34  28  79 NE9       30.42F WCI  26
LAFAYETTE      CLEAR     35  29  78 N9        30.43F WCI  28
NEW IBERIA     CLEAR     37  30  75 N12       30.42F WCI  29
ABBEVILLE        N/A     35  30  82 N9        30.42F WCI  27
PATTERSON      PTCLDY    41  32  70 NE6       30.41F
SALT POINT       N/A     41  34  76 CALM      30.39F
$$

SELECTED SITES ACROSS THE REGION

CITY           SKY/WX    TMP DP  RH WIND       PRES   REMARKS
HOUSTON BUSH   PTCLDY    38  30  73 E10       30.35F
HOUSTON HOBBY  MOCLDY    42  33  70 NE9       30.34F
GALVESTON      CLOUDY    50  40  68 NE17G25   30.33S
COLLEGE STAT   CLOUDY    37  26  64 NE10      30.37S WCI  30
CONROE         CLEAR     36  29  75 NE5       30.37R
HUNTSVILLE     MOCLDY    36  26  67 NE5       30.36S
LUFKIN         CLOUDY    39  25  57 NE6       30.39F
SHREVEPORT     CLOUDY    33  22  63 E9        30.46S WCI  25
MONROE         CLOUDY    32  25  75 E5        30.50F WCI  27
NATCHEZ MS     PTCLDY    32  25  74 N5        30.44F WCI  27
BATON ROUGE    CLEAR     37  29  72 N6        30.43S
N.O. INTL ARPT PTCLDY    46  32  58 NE14      30.40S
SLIDELL        CLEAR     36  31  82 N3        30.40S
$$

MARINE REPORTS

STATION/POSITION TIME  TEMP    WIND        PRES    VSBY  WAVE
                       AIR SEA DIR/SP/G                  HT/PER
                 (UTC) (F)     (DEG/KT/KT) (MB)    (MI)  (FT/S)
BUOY 30 S HIGH I 0600   50 56   70/ 23/ 29 1025.2F         6/ 5
SEA RIM ST PARK  0600   41      60/ 14/ 17 1027.6F
PORT ARTHUR      0600      52   70/ 14/ 20 1027.8F
SABINE PASS N    0600   42 53   70/ 15/ 20 1027.5F
TEXAS POINT      NOT AVBL
CALCASIEU PASS   0600   38 52   60/ 17/ 21   N/A
LK CHARLES BEACH 0600   37                 1029.5F
MARSH ISLAND     NOT AVBL
FRESH WATER LOCK 0600   40 50   20/ 11/ 13 1028.9F
AMERADA PASS     0600   45 50   40/  5/  8 1029.1F
$$


USA.gov is the U.S. government's official web portal to all federal, state and local government web resources and services.